SCP
0 0 0 0 0 0 0 0 0 0 0 0 0 0 0 0 0 0 0 0 0 0 0 0 0 0 0 0 0 0 0 0 0 0 0 0 0 0 0 0 0 0 0 0
0 0 0 0 0 0 0 0 0 0 0 0 0 0 0 0 0 0 0 0 0 0 0 0 0 0 0 0 0 -0 0 0 0 0 0 0 0 0 0 0 0 0 0 0
0 0 0 0 0 0 0 0 0 0 0 0 0 0 0 0 0 0 0 0 0 0 0 0 0 0 0 0 0 0 0 0 0 0 0 0 0 0 0 0 0 -0 0 0
0 0 0 0 0 0 0 0 0 0 0 0 0 0 0 0 0 0 0 0 0 0 0 0 0 0 0 0 0 0 0 0 0 0 0 0 0 0 0 0 -0 -0 0 0
0 0 0 0 0 0 0 0 0 0 0 0 0 0 0 0 0 0 0 0 0 0 0 0 0 0 0 0 0 0 0 0 0 0 0 0 0 0 0 0 -0 -0 -0 0
0 0 0 0 0 0 0 0 0 0 0 0 0 0 0 0 0 0 0 0 0 0 0 0 0 0 0 0 0 0 0 0 0 0 0 0 0 0 0 0 0 0 0 -0
0 0 0 0 0 0 0 0 0 0 0 0 0 0 0 0 0 0 0 0 0 0 0 0 0 0 0 0 0 0 0 0 0 0 0 0 0 0 0 0 0 0 0 0
0 0 0 0 0 0 0 0 0 0 0 0 0 0 0 0 0 0 0 0 0 0 0 0 0 0 0 0 0 0 0 0 0 0 0 0 0 0 0 0 0 0 0 0
0 0 0 0 0 0 0 0 0 0 0 0 0 0 0 0 0 0 0 0 0 0 0 0 0 0 0 0 0 0 0 0 0 0 0 0 0 0 0 0 0 0 0 0
0 0 0 0 0 0 0 0 0 0 0 0 0 0 0 0 0 0 0 0 0 0 0 0 0 0 0 0 0 -0 0 0 0 0 0 0 0 0 0 0 0 0 0 0
0 0 0 0 0 0 0 0 0 0 0 0 0 0 0 0 0 0 0 0 0 0 0 0 0 0 0 0 0 -0 -0 0 0 0 0 0 0 0 0 0 0 0 0 0
0 0 0 0 0 0 0 0 0 0 0 0 0 0 0 0 0 0 0 0 0 0 0 0 0 0 0 0 0 -0 0 0 0 0 0 0 0 0 0 0 0 0 0 0
0 0 0 0 0 0 0 0 0 0 0 0 0 0 0 0 0 0 0 0 0 0 0 0 0 0 0 -0 -0 0 0 0 0 0 0 0 0 0 0 0 0 0 0 0
0 0 0 0 0 0 0 0 0 0 0 0 0 0 0 0 0 0 0 0 0 0 0 0 0 0 0 0 0 0 0 0 0 0 0 0 0 0 0 0 0 0 0 0
0 0 0 0 0 0 0 0 0 0 0 0 0 0 0 0 0 0 0 0 0 0 0 0 0 0 0 0 0 0 0 0 0 0 0 0 0 0 0 0 0 0 0 0
0 0 0 0 0 0 0 0 0 0 0 0 0 0 0 0 0 0 0 0 0 0 0 0 0 0 0 0 0 0 0 0 0 0 0 0 0 0 0 0 0 0 0 0
0 0 0 0 0 0 0 0 0 0 0 0 0 0 0 0 0 0 0 0 0 0 0 0 0 0 0 0 0 0 0 0 0 0 0 0 0 0 0 0 0 0 0 0
0 0 0 0 0 0 0 0 0 0 0 0 0 0 0 0 0 0 0 0 0 0 0 0 0 0 0 0 0 0 0 0 0 0 0 0 0 0 0 0 0 0 0 0
0 0 0 0 0 0 0 -0 -0 0 0 0 0 0 0 0 0 0 0 0 0 0 0 0 0 0 0 0 -0 0 0 0 0 0 0 0 0 0 0 0 0 0 0 0
0 0 0 0 0 0 0 0 0 0 0 0 0 0 0 0 0 0 0 0 0 0 0 0 0 0 0 0 -0 0 0 0 0 0 0 0 0 0 0 0 0 0 -0 0
0 0 0 0 0 0 -0 0 0 0 0 0 0 0 0 0 0 0 0 0 0 0 0 0 0 0 0 0 0 0 0 0 0 0 0 0 0 0 0 0 0 -0 0 0
0 0 0 0 0 0 0 0 0 0 0 0 0 0 0 0 0 0 0 0 0 0 0 0 0 0 0 -0 0 0 0 0 0 0 0 0 0 0 0 0 -0 -0 0 0
0 0 0 0 0 0 0 0 0 0 0 0 0 0 0 0 0 0 0 0 0 0 0 0 0 0 0 0 0 0 0 0 0 0 0 0 0 0 0 -0 0 0 0 0
0 0 0 0 0 0 0 0 0 0 0 0 0 0 0 0 0 0 0 0 -0 0 -0 -0 -0 -0 0 0 0 0 0 0 0 0 0 0 0 0 0 -0 -0 0 0 0
0 0 0 0 0 0 0 0 0 0 0 0 0 0 0 0 0 0 0 -0 -0 -0 -0 -0 -0 -0 0 0 0 0 0 0 0 0 0 0 0 0 0 0 0 0 0 -0
0 0 0 0 0 0 0 0 0 0 0 0 0 0 0 0 0 -0 -0 -0 -0 -0 -0 -0 -0 0 0 0 0 0 0 0 0 0 0 0 0 0 0 0 0 0 0 0
0 0 0 0 0 0 0 0 0 0 0 0 0 0 0 0 -0 -0 -0 -0 -0 -0 -0 -0 -0 -0 0 0 0 0 0 0 0 0 0 0 0 0 0 0 0 0 0 -0
Wind_Speed_500mb
5 14 13 14 24 17 5 8 5 7 12 10 10 25 33 26 30 32 33 35 33 31 24 12 6 2 3 9 15 14 13 15 18 21 25 29 37 46 47 42 36 31 30 34
7 8 21 23 19 17 8 9 5 7 15 3 7 10 21 25 32 34 33 36 34 31 23 16 12 6 9 6 11 12 11 13 19 22 24 29 34 42 46 50 46 38 37 38
13 5 5 7 17 16 11 13 8 13 7 3 5 7 12 23 28 31 31 35 37 34 27 19 12 10 3 8 7 9 10 14 19 22 24 28 33 37 45 52 55 44 34 32
9 12 12 6 5 6 10 10 15 12 10 5 3 2 3 7 21 25 29 32 35 36 27 15 10 5 3 4 5 8 10 14 18 22 26 28 31 37 42 48 54 51 40 36
8 11 3 4 11 11 8 6 16 12 6 3 5 3 2 6 11 17 21 27 33 29 20 16 9 2 1 0 6 9 10 14 17 22 26 29 29 36 39 42 47 49 47 38
7 8 13 6 4 9 8 17 16 16 12 11 8 8 5 4 10 17 20 26 34 29 21 13 3 5 3 4 8 10 9 13 17 21 25 28 30 36 37 36 39 44 45 38
8 6 3 9 7 17 12 4 13 22 15 18 8 1 5 10 16 19 24 32 32 26 15 11 9 6 2 6 9 11 9 13 18 23 24 26 32 35 35 33 32 40 42 35
7 6 14 12 16 15 3 6 18 18 14 19 15 10 14 17 22 28 34 36 29 19 19 15 10 7 6 11 13 11 8 14 18 22 25 28 33 32 31 34 32 35 36 31
12 7 4 10 1 9 7 9 16 17 14 15 19 17 18 24 32 34 34 32 27 22 19 14 8 4 8 12 16 10 9 16 18 21 25 29 33 34 33 33 31 27 29 34
7 8 5 0 9 6 12 17 20 14 12 14 17 23 28 33 34 34 29 28 25 24 17 8 6 5 6 12 16 12 14 19 21 25 24 28 32 36 35 35 32 28 30 37
4 9 4 6 8 14 20 23 20 17 15 17 19 29 32 35 32 28 29 28 25 18 12 7 4 5 4 8 14 16 18 25 21 25 28 31 30 33 36 33 29 30 33 40
6 4 2 8 16 19 20 20 18 14 20 22 22 30 34 33 30 28 30 30 24 18 10 3 2 5 5 8 13 18 23 21 26 28 31 33 33 32 33 35 30 29 35 45
2 8 7 5 17 22 19 18 18 16 18 26 28 30 32 31 30 30 28 26 22 15 8 3 4 3 8 8 12 20 20 25 29 33 34 33 34 28 27 27 27 29 38 43
11 11 6 7 13 23 22 20 19 19 20 21 27 30 30 31 31 27 25 23 18 11 6 2 2 6 8 8 15 19 23 27 27 31 32 32 29 26 22 21 27 33 38 48
11 13 7 8 13 31 25 20 22 22 24 25 28 32 30 29 27 28 26 21 14 10 3 1 3 8 7 11 15 19 26 27 27 29 28 31 25 19 18 24 29 30 35 44
4 10 11 15 17 23 23 26 27 27 27 29 32 32 28 24 27 29 24 19 9 6 4 2 4 6 8 13 17 19 26 28 26 27 24 23 21 21 24 27 28 32 36 47
19 15 16 17 25 25 21 22 22 26 31 33 34 37 35 29 29 28 23 21 13 8 3 1 1 7 8 15 14 21 26 25 24 20 20 21 22 24 24 26 29 31 34 43
17 20 24 28 22 23 22 23 21 20 28 32 36 37 38 32 26 29 26 24 14 7 1 3 3 6 10 11 19 25 24 20 19 18 19 23 23 22 25 27 28 32 41 38
22 19 18 33 33 25 23 21 16 23 25 32 37 38 38 34 23 27 27 21 14 5 6 4 2 7 7 15 22 26 20 17 16 16 20 25 22 24 25 28 30 42 40 42
24 20 17 17 18 18 23 16 10 18 25 33 36 39 42 37 26 30 27 21 13 11 6 5 5 6 10 18 25 23 18 16 13 16 21 20 23 24 25 29 38 43 43 42
13 19 20 17 15 17 23 24 17 19 28 39 35 38 38 35 31 32 27 20 16 9 5 3 4 4 12 20 23 18 17 14 16 18 19 20 22 23 26 29 40 43 45 39
16 9 13 15 5 6 18 27 25 23 31 40 42 37 39 37 38 33 26 14 14 8 7 8 5 5 12 21 18 17 17 19 19 18 18 19 21 22 25 31 40 43 44 38
18 9 7 10 8 6 19 24 27 31 41 47 41 37 35 37 37 33 27 19 12 9 7 6 5 6 14 21 17 17 18 21 21 21 23 22 21 23 28 35 40 43 44 41
15 11 6 9 11 13 20 39 39 40 44 43 39 34 35 41 35 26 18 17 14 11 12 8 5 10 16 14 14 16 20 22 23 25 26 24 20 23 28 36 38 42 42 44
10 12 8 5 9 17 25 46 41 51 45 43 40 38 32 28 25 30 22 20 17 17 11 7 7 10 10 11 13 16 20 23 25 26 26 23 21 22 27 34 39 38 41 42
4 1 2 8 5 7 19 39 48 50 51 51 45 38 35 30 29 30 25 23 23 18 10 9 9 9 10 11 14 18 22 24 25 26 25 22 21 22 26 31 36 40 39 43
8 8 8 9 13 11 15 31 46 61 57 54 42 42 37 35 33 30 32 32 25 19 14 12 11 10 11 14 17 21 23 25 26 26 25 22 22 24 26 29 34 38 36 39
Wind_Direction_500mb
105 162 160 157 162 167 163 148 225 152 214 240 244 229 226 203 184 188 189 186 189 191 192 200 185 172 16 360 349 332 342 352 345 346 348 354 1 5 8 7 360 352 336 326
115 123 144 137 150 170 150 170 231 214 253 267 253 277 211 202 186 194 193 192 189 192 197 195 199 224 283 332 335 359 342 344 343 341 344 350 355 3 5 9 2 346 332 332
155 102 86 182 192 178 156 177 189 228 260 172 236 253 239 210 198 200 194 191 189 196 201 205 231 258 302 331 18 6 5 357 340 342 346 346 352 352 360 5 7 5 0 358
129 144 212 62 342 229 170 175 205 265 266 285 324 162 209 203 209 200 190 189 188 197 198 208 211 292 345 57 16 6 7 359 350 356 349 345 346 349 355 1 6 7 4 359
168 194 15 167 189 166 169 238 210 231 191 138 129 166 115 230 207 195 194 187 192 191 189 186 173 177 307 15 351 352 7 359 351 345 345 347 345 348 349 353 1 6 4 355
161 187 210 174 161 148 133 277 199 196 198 179 161 231 89 163 174 176 179 182 181 177 176 169 208 136 76 347 352 349 1 2 348 342 344 347 345 343 339 341 351 359 0 4
145 207 238 248 165 150 214 327 174 196 210 182 198 351 143 148 151 157 165 168 168 165 169 166 141 103 38 12 357 353 6 357 350 347 346 345 348 338 333 330 335 347 354 359
113 172 240 157 142 206 178 161 180 183 187 185 199 173 159 156 156 159 161 162 163 169 159 147 115 81 46 13 358 356 359 353 346 352 349 354 355 347 339 335 330 336 345 349
204 186 96 193 164 222 183 165 172 175 195 208 195 183 169 160 158 161 165 164 164 164 151 132 117 75 45 22 4 5 357 352 353 348 349 347 347 347 348 344 336 327 333 339
177 174 223 193 222 207 179 165 163 173 194 193 189 176 164 158 158 161 168 167 162 153 146 132 93 41 41 24 16 15 350 345 343 355 357 353 349 340 334 334 333 327 329 334
265 255 261 205 179 157 149 146 143 136 140 156 163 157 160 159 162 163 165 161 153 151 148 130 68 350 4 3 7 356 346 347 349 357 358 356 343 348 349 342 332 327 330 333
213 182 132 143 155 153 142 139 138 135 144 145 153 157 159 161 165 164 163 161 164 163 153 153 330 329 339 342 351 348 354 0 359 356 354 348 344 342 346 348 338 338 338 336
150 170 170 140 165 149 144 144 145 140 151 150 151 158 160 163 162 160 166 166 160 153 159 216 301 359 352 346 358 357 6 357 353 357 352 346 343 340 345 349 350 345 339 338
169 144 131 184 177 156 157 155 154 149 143 150 152 155 157 161 163 165 164 161 156 159 159 266 349 16 11 17 357 357 358 353 355 353 350 345 342 342 352 0 352 346 347 352
173 190 201 193 177 172 180 186 169 165 158 157 159 158 161 165 163 164 160 161 166 168 145 98 37 23 37 9 354 360 2 1 358 352 348 345 344 354 5 359 355 352 351 357
192 188 178 186 172 181 190 188 187 182 174 170 167 165 154 155 160 165 160 153 161 175 137 79 36 31 20 1 352 349 353 358 356 352 351 353 358 4 358 359 358 353 353 353
230 225 215 212 208 207 203 203 200 196 188 184 176 172 166 163 166 167 164 160 159 154 166 7 15 2 6 355 1 349 352 354 356 3 353 0 360 1 2 4 0 356 352 351
227 225 233 239 232 218 216 218 203 193 202 192 183 179 180 178 174 165 171 175 168 178 205 122 47 12 358 3 355 355 357 1 6 6 1 8 14 14 10 8 3 355 355 352
222 231 230 221 233 248 252 236 249 210 197 186 189 184 188 182 173 171 175 173 171 181 135 129 29 8 27 359 3 2 8 14 15 8 8 13 9 10 8 8 2 359 358 354
214 224 218 221 231 242 243 230 221 192 178 177 186 190 185 179 176 174 173 169 170 146 105 121 76 72 14 2 357 4 13 17 19 10 4 6 5 7 8 4 360 1 360 358
203 222 232 247 258 245 230 212 221 200 176 164 173 171 171 175 174 173 171 167 164 141 122 123 84 40 7 359 3 13 18 16 16 5 0 360 5 8 9 7 2 4 3 5
84 136 189 201 238 270 204 196 202 196 170 159 157 165 165 169 169 171 169 165 159 142 110 96 93 40 13 4 4 14 17 17 15 11 7 8 10 13 13 10 9 8 8 8
46 67 144 161 143 151 163 164 161 169 166 163 166 167 168 168 170 166 167 162 153 149 132 111 96 45 13 2 9 17 16 15 16 15 12 12 16 20 17 14 14 11 11 9
28 33 121 154 138 115 158 154 152 158 173 171 167 164 162 162 162 163 169 161 150 136 131 119 90 11 359 5 16 18 15 17 16 15 14 17 24 21 16 15 17 15 12 11
14 34 60 110 147 167 182 179 171 164 184 165 158 156 154 162 174 158 158 151 143 137 129 111 16 8 27 27 26 23 22 19 17 15 16 20 25 18 13 12 15 17 11 12
322 24 96 146 157 159 169 172 172 171 168 154 147 148 151 155 154 150 145 144 139 133 117 75 44 48 45 41 35 30 24 20 19 18 20 22 21 16 10 8 11 16 14 13
234 208 187 181 186 177 171 178 171 160 161 158 157 153 157 152 151 147 143 137 131 120 93 69 62 67 60 47 36 29 25 24 23 22 23 23 20 15 9 8 10 9 17 14
Wind_Speed_850mb
5 14 13 14 24 17 5 8 5 7 12 10 10 25 33 26 30 32 33 35 33 31 24 12 6 2 3 9 15 14 13 15 18 21 25 29 37 46 47 42 36 31 30 34
7 8 21 23 19 17 8 9 5 7 15 3 7 10 21 25 32 34 33 36 34 31 23 16 12 6 9 6 11 12 11 13 19 22 24 29 34 42 46 50 46 38 37 38
13 5 5 7 17 16 11 13 8 13 7 3 5 7 12 23 28 31 31 35 37 34 27 19 12 10 3 8 7 9 10 14 19 22 24 28 33 37 45 52 55 44 34 32
9 12 12 6 5 6 10 10 15 12 10 5 3 2 3 7 21 25 29 32 35 36 27 15 10 5 3 4 5 8 10 14 18 22 26 28 31 37 42 48 54 51 40 36
8 11 3 4 11 11 8 6 16 12 6 3 5 3 2 6 11 17 21 27 33 29 20 16 9 2 1 0 6 9 10 14 17 22 26 29 29 36 39 42 47 49 47 38
7 8 13 6 4 9 8 17 16 16 12 11 8 8 5 4 10 17 20 26 34 29 21 13 3 5 3 4 8 10 9 13 17 21 25 28 30 36 37 36 39 44 45 38
8 6 3 9 7 17 12 4 13 22 15 18 8 1 5 10 16 19 24 32 32 26 15 11 9 6 2 6 9 11 9 13 18 23 24 26 32 35 35 33 32 40 42 35
7 6 14 12 16 15 3 6 18 18 14 19 15 10 14 17 22 28 34 36 29 19 19 15 10 7 6 11 13 11 8 14 18 22 25 28 33 32 31 34 32 35 36 31
12 7 4 10 1 9 7 9 16 17 14 15 19 17 18 24 32 34 34 32 27 22 19 14 8 4 8 12 16 10 9 16 18 21 25 29 33 34 33 33 31 27 29 34
7 8 5 0 9 6 12 17 20 14 12 14 17 23 28 33 34 34 29 28 25 24 17 8 6 5 6 12 16 12 14 19 21 25 24 28 32 36 35 35 32 28 30 37
4 9 4 6 8 14 20 23 20 17 15 17 19 29 32 35 32 28 29 28 25 18 12 7 4 5 4 8 14 16 18 25 21 25 28 31 30 33 36 33 29 30 33 40
6 4 2 8 16 19 20 20 18 14 20 22 22 30 34 33 30 28 30 30 24 18 10 3 2 5 5 8 13 18 23 21 26 28 31 33 33 32 33 35 30 29 35 45
2 8 7 5 17 22 19 18 18 16 18 26 28 30 32 31 30 30 28 26 22 15 8 3 4 3 8 8 12 20 20 25 29 33 34 33 34 28 27 27 27 29 38 43
11 11 6 7 13 23 22 20 19 19 20 21 27 30 30 31 31 27 25 23 18 11 6 2 2 6 8 8 15 19 23 27 27 31 32 32 29 26 22 21 27 33 38 48
11 13 7 8 13 31 25 20 22 22 24 25 28 32 30 29 27 28 26 21 14 10 3 1 3 8 7 11 15 19 26 27 27 29 28 31 25 19 18 24 29 30 35 44
4 10 11 15 17 23 23 26 27 27 27 29 32 32 28 24 27 29 24 19 9 6 4 2 4 6 8 13 17 19 26 28 26 27 24 23 21 21 24 27 28 32 36 47
19 15 16 17 25 25 21 22 22 26 31 33 34 37 35 29 29 28 23 21 13 8 3 1 1 7 8 15 14 21 26 25 24 20 20 21 22 24 24 26 29 31 34 43
17 20 24 28 22 23 22 23 21 20 28 32 36 37 38 32 26 29 26 24 14 7 1 3 3 6 10 11 19 25 24 20 19 18 19 23 23 22 25 27 28 32 41 38
22 19 18 33 33 25 23 21 16 23 25 32 37 38 38 34 23 27 27 21 14 5 6 4 2 7 7 15 22 26 20 17 16 16 20 25 22 24 25 28 30 42 40 42
24 20 17 17 18 18 23 16 10 18 25 33 36 39 42 37 26 30 27 21 13 11 6 5 5 6 10 18 25 23 18 16 13 16 21 20 23 24 25 29 38 43 43 42
13 19 20 17 15 17 23 24 17 19 28 39 35 38 38 35 31 32 27 20 16 9 5 3 4 4 12 20 23 18 17 14 16 18 19 20 22 23 26 29 40 43 45 39
16 9 13 15 5 6 18 27 25 23 31 40 42 37 39 37 38 33 26 14 14 8 7 8 5 5 12 21 18 17 17 19 19 18 18 19 21 22 25 31 40 43 44 38
18 9 7 10 8 6 19 24 27 31 41 47 41 37 35 37 37 33 27 19 12 9 7 6 5 6 14 21 17 17 18 21 21 21 23 22 21 23 28 35 40 43 44 41
15 11 6 9 11 13 20 39 39 40 44 43 39 34 35 41 35 26 18 17 14 11 12 8 5 10 16 14 14 16 20 22 23 25 26 24 20 23 28 36 38 42 42 44
10 12 8 5 9 17 25 46 41 51 45 43 40 38 32 28 25 30 22 20 17 17 11 7 7 10 10 11 13 16 20 23 25 26 26 23 21 22 27 34 39 38 41 42
4 1 2 8 5 7 19 39 48 50 51 51 45 38 35 30 29 30 25 23 23 18 10 9 9 9 10 11 14 18 22 24 25 26 25 22 21 22 26 31 36 40 39 43
8 8 8 9 13 11 15 31 46 61 57 54 42 42 37 35 33 30 32 32 25 19 14 12 11 10 11 14 17 21 23 25 26 26 25 22 22 24 26 29 34 38 36 39
Wind_Direction_850mb
105 162 160 157 162 167 163 148 225 152 214 240 244 229 226 203 184 188 189 186 189 191 192 200 185 172 16 360 349 332 342 352 345 346 348 354 1 5 8 7 360 352 336 326
115 123 144 137 150 170 150 170 231 214 253 267 253 277 211 202 186 194 193 192 189 192 197 195 199 224 283 332 335 359 342 344 343 341 344 350 355 3 5 9 2 346 332 332
155 102 86 182 192 178 156 177 189 228 260 172 236 253 239 210 198 200 194 191 189 196 201 205 231 258 302 331 18 6 5 357 340 342 346 346 352 352 360 5 7 5 0 358
129 144 212 62 342 229 170 175 205 265 266 285 324 162 209 203 209 200 190 189 188 197 198 208 211 292 345 57 16 6 7 359 350 356 349 345 346 349 355 1 6 7 4 359
168 194 15 167 189 166 169 238 210 231 191 138 129 166 115 230 207 195 194 187 192 191 189 186 173 177 307 15 351 352 7 359 351 345 345 347 345 348 349 353 1 6 4 355
161 187 210 174 161 148 133 277 199 196 198 179 161 231 89 163 174 176 179 182 181 177 176 169 208 136 76 347 352 349 1 2 348 342 344 347 345 343 339 341 351 359 0 4
145 207 238 248 165 150 214 327 174 196 210 182 198 351 143 148 151 157 165 168 168 165 169 166 141 103 38 12 357 353 6 357 350 347 346 345 348 338 333 330 335 347 354 359
113 172 240 157 142 206 178 161 180 183 187 185 199 173 159 156 156 159 161 162 163 169 159 147 115 81 46 13 358 356 359 353 346 352 349 354 355 347 339 335 330 336 345 349
204 186 96 193 164 222 183 165 172 175 195 208 195 183 169 160 158 161 165 164 164 164 151 132 117 75 45 22 4 5 357 352 353 348 349 347 347 347 348 344 336 327 333 339
177 174 223 193 222 207 179 165 163 173 194 193 189 176 164 158 158 161 168 167 162 153 146 132 93 41 41 24 16 15 350 345 343 355 357 353 349 340 334 334 333 327 329 334
265 255 261 205 179 157 149 146 143 136 140 156 163 157 160 159 162 163 165 161 153 151 148 130 68 350 4 3 7 356 346 347 349 357 358 356 343 348 349 342 332 327 330 333
213 182 132 143 155 153 142 139 138 135 144 145 153 157 159 161 165 164 163 161 164 163 153 153 330 329 339 342 351 348 354 0 359 356 354 348 344 342 346 348 338 338 338 336
150 170 170 140 165 149 144 144 145 140 151 150 151 158 160 163 162 160 166 166 160 153 159 216 301 359 352 346 358 357 6 357 353 357 352 346 343 340 345 349 350 345 339 338
169 144 131 184 177 156 157 155 154 149 143 150 152 155 157 161 163 165 164 161 156 159 159 266 349 16 11 17 357 357 358 353 355 353 350 345 342 342 352 0 352 346 347 352
173 190 201 193 177 172 180 186 169 165 158 157 159 158 161 165 163 164 160 161 166 168 145 98 37 23 37 9 354 360 2 1 358 352 348 345 344 354 5 359 355 352 351 357
192 188 178 186 172 181 190 188 187 182 174 170 167 165 154 155 160 165 160 153 161 175 137 79 36 31 20 1 352 349 353 358 356 352 351 353 358 4 358 359 358 353 353 353
230 225 215 212 208 207 203 203 200 196 188 184 176 172 166 163 166 167 164 160 159 154 166 7 15 2 6 355 1 349 352 354 356 3 353 0 360 1 2 4 0 356 352 351
227 225 233 239 232 218 216 218 203 193 202 192 183 179 180 178 174 165 171 175 168 178 205 122 47 12 358 3 355 355 357 1 6 6 1 8 14 14 10 8 3 355 355 352
222 231 230 221 233 248 252 236 249 210 197 186 189 184 188 182 173 171 175 173 171 181 135 129 29 8 27 359 3 2 8 14 15 8 8 13 9 10 8 8 2 359 358 354
214 224 218 221 231 242 243 230 221 192 178 177 186 190 185 179 176 174 173 169 170 146 105 121 76 72 14 2 357 4 13 17 19 10 4 6 5 7 8 4 360 1 360 358
203 222 232 247 258 245 230 212 221 200 176 164 173 171 171 175 174 173 171 167 164 141 122 123 84 40 7 359 3 13 18 16 16 5 0 360 5 8 9 7 2 4 3 5
84 136 189 201 238 270 204 196 202 196 170 159 157 165 165 169 169 171 169 165 159 142 110 96 93 40 13 4 4 14 17 17 15 11 7 8 10 13 13 10 9 8 8 8
46 67 144 161 143 151 163 164 161 169 166 163 166 167 168 168 170 166 167 162 153 149 132 111 96 45 13 2 9 17 16 15 16 15 12 12 16 20 17 14 14 11 11 9
28 33 121 154 138 115 158 154 152 158 173 171 167 164 162 162 162 163 169 161 150 136 131 119 90 11 359 5 16 18 15 17 16 15 14 17 24 21 16 15 17 15 12 11
14 34 60 110 147 167 182 179 171 164 184 165 158 156 154 162 174 158 158 151 143 137 129 111 16 8 27 27 26 23 22 19 17 15 16 20 25 18 13 12 15 17 11 12
322 24 96 146 157 159 169 172 172 171 168 154 147 148 151 155 154 150 145 144 139 133 117 75 44 48 45 41 35 30 24 20 19 18 20 22 21 16 10 8 11 16 14 13
234 208 187 181 186 177 171 178 171 160 161 158 157 153 157 152 151 147 143 137 131 120 93 69 62 67 60 47 36 29 25 24 23 22 23 23 20 15 9 8 10 9 17 14